C/2019 E3 ( ATLAS )

Japanese version
Home page
Updated on May 20, 2019

---------------------------------------------------------------------

* Profile

Discovery Date March 5, 2019
Magnitude 18.4 mag
Discoverer Asteroid Terrestrial-Impact Last Alert System (ATLAS) search program

* Orbital Elements

Epoch 2023 Dec. 2.0 TT = JDT 2460280.5
T 2023 Nov. 14.83253 TT                                 MPCW
q  10.3443304            (2000.0)            P               Q
z  +0.0006723      Peri.  280.47024     +0.15556296     +0.96299453
 +/-0.0004234      Node   347.22081     +0.26471117     -0.25529717
e   0.9930452      Incl.   84.28484     -0.95169752     +0.08639958
From 50 observations 2019 Mar. 1-Apr. 5, mean residual 0".3.

* Magnitudes Graph

        m1 = 2.5 + 5 log d + 10.0 log r

---------------------------------------------------------------------

The orbital elements are published on M.P.E.C. 2019-J142.
The magnitudes graphs are made with Comet for Windows.

---------------------------------------------------------------------

Copyright(C) Seiichi Yoshida (comet@aerith.net). All rights reserved.